Location: Appeville
(49.3218°N, 1.3427°W)
Time: 18:04:55
(UTC+00:00)

NOAA 6 - Pass Details

Date: 08 December 2019
Orbit: 773 x 787 km, 98.7° (Epoch: 22 January)

Event Time Altitude Azimuth Distance (km) Brightness Sun altitude
Rises 05:59:06 0° 14° (NNE) 3,263 7.2 -16.7°
Reaches altitude 10° 06:01:25 10° 14° (NNE) 2,331 6.5 -16.3°
Maximum altitude 06:06:34 86° 288° (WNW) 783 4.0 -15.5°
Drops below altitude 10° 06:11:41 10° 199° (SSW) 2,318 6.5 -14.7°
Sets 06:13:59 0° 199° (SSW) 3,242 7.3 -14.4°
